Location: La Comballaz
(46.3780°N, 7.0817°E)
Time: 03:36:16
(UTC+00:00)

Cosmos 407 Rocket - Pass Details

Date: 09 April 2020
Orbit: 743 x 787 km, 74.0° (Epoch: 06 June)

Event Time Altitude Azimuth Distance (km) Brightness Sun altitude
Rises 19:02:27 0° 195° (SSW) 3,186 6.6 -9.2°
Reaches altitude 10° 19:04:48 10° 193° (SSW) 2,261 5.9 -9.5°
Maximum altitude 19:09:54 75° 109° (ESE) 774 3.4 -10.4°
Drops below altitude 10° 19:15:01 10° 25° (NNE) 2,266 5.9 -11.2°
Sets 19:17:23 0° 24° (NNE) 3,194 6.7 -11.5°
